Time,TemperatureF,DewpointF,PressureIn,WindDirection,WindDirectionDegrees,WindSpeedMPH,WindSpeedGustMPH,Humidity,HourlyPrecipIn,Conditions,Clouds,dailyrainin,SoftwareType,DateUTC
2013-05-08 00:02:00,57.0,47.0,29.85,North,0,0.0,0.0,69,0.00,,,0.00,,2013-05-07 23:02:00,
2013-05-08 00:11:00,57.0,47.0,29.85,North,0,0.0,0.0,69,0.00,,,0.00,,2013-05-07 23:11:00,
2013-05-08 00:21:00,56.0,47.0,29.84,North,0,0.0,0.0,72,0.00,,,0.00,,2013-05-07 23:21:00,
2013-05-08 00:32:00,56.0,47.0,29.84,North,0,0.0,0.0,72,0.00,,,0.00,,2013-05-07 23:32:00,
2013-05-08 00:41:00,56.0,47.0,29.84,North,0,0.0,0.0,72,0.00,,,0.00,,2013-05-07 23:41:00,
2013-05-08 00:52:00,54.0,47.0,29.82,North,0,0.0,0.0,77,0.00,,,0.00,,2013-05-07 23:52:00,
2013-05-08 01:01:00,54.0,47.0,29.82,North,0,0.0,0.0,77,0.00,,,0.00,,2013-05-08 00:01:00,
2013-05-08 01:11:00,54.0,47.0,29.82,North,0,0.0,0.0,77,0.00,,,0.00,,2013-05-08 00:11:00,
2013-05-08 01:21:00,54.0,48.0,29.81,North,0,0.0,0.0,79,0.00,,,0.00,,2013-05-08 00:21:00,
2013-05-08 01:32:00,53.0,47.0,29.81,SSW,211,0.0,2.0,79,0.00,,,0.00,,2013-05-08 00:32:00,
2013-05-08 01:41:00,53.0,47.0,29.81,SSW,211,0.0,2.0,79,0.00,,,0.00,,2013-05-08 00:41:00,
2013-05-08 01:52:00,53.0,47.0,29.81,SSW,211,0.0,2.0,79,0.00,,,0.00,,2013-05-08 00:52:00,
2013-05-08 02:01:00,53.0,47.0,29.80,North,0,0.0,0.0,80,0.00,,,0.00,,2013-05-08 01:01:00,
2013-05-08 02:11:00,53.0,47.0,29.80,North,0,0.0,0.0,80,0.00,,,0.00,,2013-05-08 01:11:00,
2013-05-08 02:21:00,53.0,48.0,29.80,SE,141,0.0,4.0,82,0.00,,,0.00,,2013-05-08 01:21:00,
2013-05-08 02:31:00,53.0,48.0,29.80,SE,141,0.0,4.0,82,0.00,,,0.00,,2013-05-08 01:31:00,
2013-05-08 02:42:00,53.0,48.0,29.80,SE,141,0.0,4.0,82,0.00,,,0.00,,2013-05-08 01:42:00,
2013-05-08 02:52:00,53.0,48.0,29.80,SE,141,0.0,4.0,82,0.00,,,0.00,,2013-05-08 01:52:00,
2013-05-08 03:32:00,53.0,48.0,29.75,ESE,108,0.0,6.0,83,0.00,,,0.00,,2013-05-08 02:32:00,
2013-05-08 03:42:00,53.0,48.0,29.75,ESE,108,0.0,6.0,83,0.00,,,0.00,,2013-05-08 02:42:00,
2013-05-08 03:52:00,53.0,48.0,29.74,ESE,108,0.0,2.0,83,0.00,,,0.00,,2013-05-08 02:52:00,
2013-05-08 04:01:00,53.0,48.0,29.74,ESE,106,0.0,4.0,83,0.00,,,0.00,,2013-05-08 03:01:00,
2013-05-08 04:11:00,53.0,48.0,29.74,ESE,106,0.0,4.0,83,0.00,,,0.00,,2013-05-08 03:11:00,
2013-05-08 04:21:00,53.0,48.0,29.73,ESE,104,0.0,2.0,84,0.00,,,0.00,,2013-05-08 03:21:00,
2013-05-08 04:32:00,53.0,48.0,29.72,North,0,0.0,0.0,84,0.00,,,0.00,,2013-05-08 03:32:00,
2013-05-08 04:43:00,53.0,48.0,29.72,North,0,0.0,0.0,84,0.00,,,0.00,,2013-05-08 03:43:00,
2013-05-08 04:52:00,53.0,49.0,29.73,ESE,104,0.0,2.0,86,0.00,,,0.00,,2013-05-08 03:52:00,
2013-05-08 05:02:00,53.0,49.0,29.72,North,0,0.0,0.0,87,0.00,,,0.00,,2013-05-08 04:02:00,
2013-05-08 05:12:00,53.0,49.0,29.72,North,0,0.0,0.0,87,0.00,,,0.00,,2013-05-08 04:12:00,
2013-05-08 05:22:00,53.0,50.0,29.72,North,0,0.0,0.0,88,0.00,,,0.00,,2013-05-08 04:22:00,
2013-05-08 05:32:00,53.0,50.0,29.72,North,0,0.0,0.0,90,0.00,,,0.00,,2013-05-08 04:32:00,
2013-05-08 05:42:00,53.0,50.0,29.72,North,0,0.0,0.0,90,0.00,,,0.00,,2013-05-08 04:42:00,
2013-05-08 05:52:00,53.0,50.0,29.72,ESE,104,0.0,2.0,90,0.01,,,0.01,,2013-05-08 04:52:00,
2013-05-08 06:02:00,53.0,50.0,29.71,ESE,104,0.0,2.0,90,0.01,,,0.01,,2013-05-08 05:02:00,
2013-05-08 06:12:00,53.0,50.0,29.71,ESE,104,0.0,2.0,90,0.01,,,0.01,,2013-05-08 05:12:00,
2013-05-08 06:22:00,53.0,50.0,29.70,ESE,104,0.0,2.0,89,0.02,,,0.02,,2013-05-08 05:22:00,
2013-05-08 06:32:00,53.0,50.0,29.70,ESE,104,0.0,2.0,89,0.02,,,0.02,,2013-05-08 05:32:00,
2013-05-08 06:42:00,53.0,50.0,29.70,ESE,104,0.0,2.0,89,0.02,,,0.02,,2013-05-08 05:42:00,
2013-05-08 06:52:00,53.0,50.0,29.70,ESE,103,0.0,2.0,91,0.02,,,0.03,,2013-05-08 05:52:00,
2013-05-08 07:01:00,53.0,50.0,29.70,ESE,103,0.0,2.0,91,0.02,,,0.03,,2013-05-08 06:01:00,
2013-05-08 07:12:00,53.0,50.0,29.70,ESE,103,0.0,2.0,91,0.02,,,0.03,,2013-05-08 06:12:00,
2013-05-08 07:21:00,53.0,51.0,29.69,ESE,117,0.0,4.0,93,0.02,,,0.03,,2013-05-08 06:21:00,
2013-05-08 07:31:00,53.0,51.0,29.69,ESE,117,0.0,4.0,93,0.02,,,0.03,,2013-05-08 06:31:00,
2013-05-08 07:40:00,54.0,53.0,29.68,SE,139,3.0,4.0,95,0.01,,,0.04,,2013-05-08 06:40:00,
2013-05-08 07:41:00,53.0,51.0,29.69,ESE,117,0.0,4.0,93,0.02,,,0.03,,2013-05-08 06:41:00,
2013-05-08 07:51:00,53.0,51.0,29.69,ESE,117,0.0,4.0,93,0.02,,,0.03,,2013-05-08 06:51:00,
2013-05-08 08:01:00,54.0,53.0,29.68,SE,139,3.0,4.0,95,0.01,,,0.04,,2013-05-08 07:01:00,
2013-05-08 08:11:00,54.0,53.0,29.68,SE,139,3.0,4.0,95,0.01,,,0.04,,2013-05-08 07:11:00,
2013-05-08 08:21:00,54.0,53.0,29.68,SE,139,3.0,4.0,95,0.01,,,0.04,,2013-05-08 07:21:00,
2013-05-08 08:31:00,54.0,53.0,29.68,SE,139,3.0,4.0,95,0.01,,,0.04,,2013-05-08 07:31:00,
2013-05-08 08:52:00,55.0,54.0,29.68,SW,224,3.0,10.0,97,0.00,,,0.04,,2013-05-08 07:52:00,
2013-05-08 09:01:00,55.0,54.0,29.68,SW,228,3.0,10.0,97,0.00,,,0.04,,2013-05-08 08:01:00,
2013-05-08 09:11:00,55.0,54.0,29.68,SW,228,3.0,10.0,97,0.00,,,0.04,,2013-05-08 08:11:00,
2013-05-08 09:21:00,55.0,54.0,29.68,SW,228,3.0,10.0,97,0.00,,,0.04,,2013-05-08 08:21:00,
2013-05-08 09:31:00,56.0,55.0,29.67,WSW,246,3.0,10.0,97,0.00,,,0.04,,2013-05-08 08:31:00,
2013-05-08 09:42:00,56.0,55.0,29.67,WSW,246,3.0,10.0,97,0.00,,,0.04,,2013-05-08 08:42:00,
2013-05-08 09:52:00,56.0,55.0,29.67,SW,236,6.0,12.0,96,0.00,,,0.04,,2013-05-08 08:52:00,
2013-05-08 10:02:00,57.0,56.0,29.67,West,269,6.0,12.0,96,0.00,,,0.04,,2013-05-08 09:02:00,
2013-05-08 10:11:00,57.0,56.0,29.67,West,269,6.0,12.0,96,0.00,,,0.04,,2013-05-08 09:11:00,
2013-05-08 10:21:00,57.0,55.0,29.67,WSW,248,6.0,20.0,92,0.00,,,0.04,,2013-05-08 09:21:00,
2013-05-08 10:32:00,58.0,54.0,29.67,WSW,258,9.0,18.0,87,0.00,,,0.04,,2013-05-08 09:32:00,
2013-05-08 10:42:00,58.0,54.0,29.67,WSW,258,9.0,18.0,87,0.00,,,0.04,,2013-05-08 09:42:00,
2013-05-08 10:52:00,58.0,54.0,29.67,WSW,258,9.0,18.0,87,0.00,,,0.04,,2013-05-08 09:52:00,
2013-05-08 11:02:00,58.0,54.0,29.67,West,265,6.0,16.0,86,0.00,,,0.04,,2013-05-08 10:02:00,
2013-05-08 11:12:00,58.0,54.0,29.67,West,265,6.0,16.0,86,0.00,,,0.04,,2013-05-08 10:12:00,
2013-05-08 11:22:00,58.0,54.0,29.67,West,265,6.0,16.0,86,0.00,,,0.04,,2013-05-08 10:22:00,
2013-05-08 11:33:00,58.0,53.0,29.67,WSW,243,9.0,16.0,82,0.00,,,0.04,,2013-05-08 10:33:00,
2013-05-08 11:42:00,58.0,53.0,29.67,WSW,243,9.0,16.0,82,0.00,,,0.04,,2013-05-08 10:42:00,
2013-05-08 11:52:00,58.0,53.0,29.67,WSW,243,9.0,16.0,82,0.00,,,0.04,,2013-05-08 10:52:00,
2013-05-08 12:02:00,59.0,53.0,29.67,West,261,9.0,18.0,81,0.00,,,0.04,,2013-05-08 11:02:00,
2013-05-08 12:11:00,59.0,53.0,29.67,West,261,9.0,18.0,81,0.00,,,0.04,,2013-05-08 11:11:00,
2013-05-08 12:22:00,59.0,53.0,29.67,West,267,9.0,22.0,80,0.00,,,0.04,,2013-05-08 11:22:00,
2013-05-08 12:32:00,59.0,53.0,29.67,West,267,9.0,22.0,80,0.00,,,0.04,,2013-05-08 11:32:00,
2013-05-08 12:41:00,59.0,53.0,29.67,West,267,9.0,22.0,80,0.00,,,0.04,,2013-05-08 11:41:00,
2013-05-08 12:52:00,59.0,53.0,29.67,West,267,9.0,22.0,80,0.00,,,0.04,,2013-05-08 11:52:00,
2013-05-08 13:01:00,59.0,54.0,29.67,West,270,6.0,20.0,82,0.00,,,0.04,,2013-05-08 12:01:00,
2013-05-08 13:11:00,59.0,54.0,29.67,West,270,6.0,20.0,82,0.00,,,0.04,,2013-05-08 12:11:00,
2013-05-08 13:21:00,59.0,53.0,29.68,West,275,6.0,16.0,81,0.00,,,0.04,,2013-05-08 12:21:00,
2013-05-08 13:31:00,59.0,53.0,29.68,West,275,6.0,16.0,81,0.00,,,0.04,,2013-05-08 12:31:00,
2013-05-08 13:42:00,59.0,53.0,29.68,West,275,6.0,16.0,81,0.00,,,0.04,,2013-05-08 12:42:00,
2013-05-08 13:52:00,59.0,53.0,29.68,West,268,6.0,20.0,81,0.00,,,0.04,,2013-05-08 12:52:00,
2013-05-08 14:01:00,59.0,52.0,29.68,WSW,245,6.0,14.0,78,0.00,,,0.04,,2013-05-08 13:01:00,
2013-05-08 14:11:00,59.0,52.0,29.68,WSW,245,6.0,14.0,78,0.00,,,0.04,,2013-05-08 13:11:00,
2013-05-08 14:21:00,59.0,52.0,29.68,WSW,245,6.0,14.0,78,0.00,,,0.04,,2013-05-08 13:21:00,
2013-05-08 14:32:00,58.0,51.0,29.68,West,259,6.0,14.0,78,0.00,,,0.04,,2013-05-08 13:32:00,
2013-05-08 14:42:00,58.0,51.0,29.68,West,259,6.0,14.0,78,0.00,,,0.04,,2013-05-08 13:42:00,
2013-05-08 14:52:00,58.0,51.0,29.68,West,259,6.0,14.0,78,0.00,,,0.04,,2013-05-08 13:52:00,
2013-05-08 15:02:00,59.0,51.0,29.67,WSW,257,6.0,14.0,76,0.00,,,0.04,,2013-05-08 14:02:00,
2013-05-08 15:11:00,59.0,51.0,29.67,WSW,257,6.0,14.0,76,0.00,,,0.04,,2013-05-08 14:11:00,
2013-05-08 15:21:00,60.0,52.0,29.67,West,270,9.0,16.0,76,0.00,,,0.04,,2013-05-08 14:21:00,
2013-05-08 15:31:00,61.0,52.0,29.67,West,260,6.0,24.0,71,0.00,,,0.04,,2013-05-08 14:31:00,
2013-05-08 15:42:00,61.0,52.0,29.67,West,260,6.0,24.0,71,0.00,,,0.04,,2013-05-08 14:42:00,
2013-05-08 15:52:00,62.0,52.0,29.67,WSW,250,9.0,26.0,69,0.00,,,0.04,,2013-05-08 14:52:00,
2013-05-08 16:01:00,62.0,52.0,29.67,WSW,250,9.0,26.0,69,0.00,,,0.04,,2013-05-08 15:01:00,
2013-05-08 16:11:00,62.0,52.0,29.67,WSW,250,9.0,26.0,69,0.00,,,0.04,,2013-05-08 15:11:00,
2013-05-08 16:21:00,62.0,52.0,29.67,WSW,250,9.0,26.0,69,0.00,,,0.04,,2013-05-08 15:21:00,
2013-05-08 16:33:00,62.0,51.0,29.67,West,262,9.0,28.0,68,0.00,,,0.04,,2013-05-08 15:33:00,
2013-05-08 16:42:00,62.0,51.0,29.67,West,262,9.0,28.0,68,0.00,,,0.04,,2013-05-08 15:42:00,
2013-05-08 16:53:00,63.0,52.0,29.67,West,270,6.0,24.0,67,0.00,,,0.04,,2013-05-08 15:53:00,
2013-05-08 17:03:00,62.0,51.0,29.66,WSW,258,9.0,18.0,67,0.00,,,0.04,,2013-05-08 16:03:00,
2013-05-08 17:12:00,62.0,51.0,29.66,WSW,258,9.0,18.0,67,0.00,,,0.04,,2013-05-08 16:12:00,
2013-05-08 17:23:00,61.0,50.0,29.67,West,270,9.0,22.0,68,0.00,,,0.04,,2013-05-08 16:23:00,
2013-05-08 17:33:00,61.0,50.0,29.67,West,270,9.0,22.0,68,0.00,,,0.04,,2013-05-08 16:33:00,
2013-05-08 17:42:00,61.0,50.0,29.67,West,270,9.0,22.0,68,0.00,,,0.04,,2013-05-08 16:42:00,
2013-05-08 17:52:00,61.0,50.0,29.67,West,270,9.0,22.0,68,0.00,,,0.04,,2013-05-08 16:52:00,
2013-05-08 18:02:00,60.0,51.0,29.67,WSW,252,12.0,24.0,73,0.00,,,0.04,,2013-05-08 17:02:00,
2013-05-08 18:11:00,60.0,51.0,29.67,WSW,252,12.0,24.0,73,0.00,,,0.04,,2013-05-08 17:11:00,
2013-05-08 18:22:00,60.0,51.0,29.67,WSW,252,12.0,24.0,73,0.00,,,0.04,,2013-05-08 17:22:00,
2013-05-08 18:31:00,60.0,51.0,29.67,WSW,252,12.0,24.0,73,0.00,,,0.04,,2013-05-08 17:31:00,
2013-05-08 18:41:00,60.0,51.0,29.67,WSW,252,12.0,24.0,73,0.00,,,0.04,,2013-05-08 17:41:00,
2013-05-08 18:52:00,59.0,52.0,29.67,West,263,6.0,16.0,77,0.00,,,0.04,,2013-05-08 17:52:00,
2013-05-08 19:02:00,59.0,52.0,29.67,West,263,6.0,16.0,77,0.00,,,0.04,,2013-05-08 18:02:00,
2013-05-08 19:22:00,58.0,52.0,29.68,WSW,251,6.0,16.0,81,0.00,,,0.04,,2013-05-08 18:22:00,
2013-05-08 19:32:00,58.0,52.0,29.68,WSW,251,6.0,16.0,81,0.00,,,0.04,,2013-05-08 18:32:00,
2013-05-08 19:42:00,58.0,52.0,29.68,WSW,251,6.0,16.0,81,0.00,,,0.04,,2013-05-08 18:42:00,
2013-05-08 19:52:00,57.0,52.0,29.68,WSW,251,6.0,16.0,84,0.00,,,0.04,,2013-05-08 18:52:00,
2013-05-08 20:01:00,57.0,53.0,29.68,WSW,256,9.0,18.0,86,0.00,,,0.04,,2013-05-08 19:01:00,
2013-05-08 20:11:00,57.0,53.0,29.68,WSW,256,9.0,18.0,86,0.00,,,0.04,,2013-05-08 19:11:00,
2013-05-08 20:21:00,56.0,52.0,29.69,WSW,253,3.0,14.0,87,0.00,,,0.04,,2013-05-08 19:21:00,
2013-05-08 20:31:00,56.0,52.0,29.69,West,263,6.0,14.0,87,0.00,,,0.04,,2013-05-08 19:31:00,
2013-05-08 20:41:00,56.0,52.0,29.69,West,263,6.0,14.0,87,0.00,,,0.04,,2013-05-08 19:41:00,
2013-05-08 20:52:00,56.0,52.0,29.70,West,264,6.0,16.0,88,0.00,,,0.04,,2013-05-08 19:52:00,
2013-05-08 21:01:00,56.0,51.0,29.71,West,274,6.0,16.0,83,0.00,,,0.04,,2013-05-08 20:01:00,
2013-05-08 21:11:00,56.0,51.0,29.71,West,274,6.0,16.0,83,0.00,,,0.04,,2013-05-08 20:11:00,
2013-05-08 21:22:00,53.0,47.0,29.73,West,265,3.0,8.0,80,0.00,,,0.04,,2013-05-08 20:22:00,
2013-05-08 21:32:00,53.0,47.0,29.73,West,265,3.0,8.0,80,0.00,,,0.04,,2013-05-08 20:32:00,
2013-05-08 21:41:00,53.0,47.0,29.73,West,265,3.0,8.0,80,0.00,,,0.04,,2013-05-08 20:41:00,
2013-05-08 21:52:00,53.0,47.0,29.73,West,265,3.0,8.0,80,0.00,,,0.04,,2013-05-08 20:52:00,
2013-05-08 22:01:00,53.0,47.0,29.73,West,265,3.0,8.0,80,0.00,,,0.04,,2013-05-08 21:01:00,
2013-05-08 22:11:00,52.0,47.0,29.75,West,281,3.0,10.0,82,0.00,,,0.04,,2013-05-08 21:11:00,
2013-05-08 22:21:00,52.0,47.0,29.75,West,281,3.0,10.0,82,0.00,,,0.04,,2013-05-08 21:21:00,
2013-05-08 22:32:00,52.0,47.0,29.75,West,281,3.0,10.0,82,0.00,,,0.04,,2013-05-08 21:32:00,
2013-05-08 22:43:00,52.0,47.0,29.75,West,281,3.0,10.0,82,0.00,,,0.04,,2013-05-08 21:43:00,
2013-05-08 22:52:00,52.0,47.0,29.75,West,281,3.0,10.0,82,0.00,,,0.04,,2013-05-08 21:52:00,
2013-05-08 23:22:00,50.0,45.0,29.78,West,264,3.0,12.0,83,0.00,,,0.04,,2013-05-08 22:22:00,
2013-05-08 23:33:00,50.0,45.0,29.78,West,264,3.0,12.0,83,0.00,,,0.04,,2013-05-08 22:33:00,
2013-05-08 23:42:00,49.0,43.0,29.78,WNW,289,0.0,6.0,81,0.00,,,0.04,,2013-05-08 22:42:00,
2013-05-08 23:52:00,49.0,43.0,29.78,WNW,289,0.0,6.0,81,0.00,,,0.04,,2013-05-08 22:52:00,